Home > Weather > Temple > Past weeks

Flag for USA Weather for the Past 2 Weeks in Temple, Texas, USA

Now
73 °F

Clear.


Feels Like: 77 °F
Forecast: 53 / 83 °F
Wind: 2 mph from Northeast

Location: Fort Hood AAF Airport

Current Time: May 5, 2016 at 11:24:54 PM

Latest Report: May 5, 2016 at 10:58 PM


Visibility: 10 mi

Pressure: 30.04 "Hg

Humidity: 39%

Dew Point: 47 °F

Location of TempleLocation

Historic Weather in Temple — Graph

°F

Temple Temperature Yesterday

Maximum temperature yesterday: 82 °F (at 5:00 PM)
Minimum temperature yesterday: 54 °F (at 6:58 AM)
Average temperature yesterday: 70 °F

High & Low Weather Summary for the Past Weeks

 TemperatureHumidityPressure
High86 °F (Apr 25, 2:58 PM)100% (Apr 25, 6:58 AM)30.13 "Hg (Apr 25, 6:58 AM)
Low48 °F (May 3, 6:58 AM)20% (Apr 27, 1:58 PM)29.50 "Hg (Apr 29, 6:58 PM)
Average69 °F72%29.87 "Hg
* Reported Apr 20 9:58 PM — May 5 9:58 PM, Temple, Weather by CustomWeather, © 2016

Note: Actual official high and low records may vary slightly from our data, if they occured in-between our weather recording intervals... More about our weather records

Advertising

Temple Weather History for the Previous 24 Hours

Scroll right to see more
 ConditionsComfort  
Time TempWeatherWind HumidityBarometerVisibility
9:58 PM
Thu, May 5
72 °FClear.3 mph50%30.01 "Hg10 mi
9:04 PM73 °FSunny.5 mph53%30.00 "Hg7 mi
7:58 PM78 °FSunny.3 mph46%29.95 "Hg9 mi
6:58 PM80 °FSunny.2 mph39%29.95 "Hg10 mi
5:58 PM81 °FSunny.3 mph37%29.95 "Hg10 mi
4:58 PM82 °FSunny.7 mph36%29.96 "Hg10 mi
3:58 PM82 °FSunny.5 mph37%29.97 "Hg10 mi
2:58 PM82 °FSunny.6 mph36%30.01 "Hg10 mi
1:58 PM80 °FPassing clouds.2 mph35%30.02 "Hg10 mi
12:58 PM80 °FSunny.6 mph36%30.03 "Hg10 mi
11:58 AM78 °FSunny.2 mph39%30.06 "Hg9 mi
10:58 AM75 °FSunny.6 mph43%30.06 "Hg9 mi
9:58 AM71 °FSunny.5 mph51%30.07 "Hg10 mi
8:58 AM67 °FSunny.6 mph58%30.06 "Hg10 mi
7:58 AM62 °FSunny.5 mph72%30.03 "Hg10 mi
6:58 AM58 °FClear.8 mph73%30.02 "Hg9 mi
5:58 AM58 °FClear.3 mph73%30.00 "Hg10 mi
4:58 AM56 °FClear.3 mph80%30.00 "Hg10 mi
3:58 AM61 °FClear.No wind67%29.98 "Hg10 mi
2:58 AM62 °FClear.2 mph66%29.98 "Hg10 mi
1:58 AM61 °FClear.3 mph70%29.99 "Hg10 mi
12:58 AM63 °FClear.2 mph67%29.99 "Hg10 mi
11:58 PM
Wed, May 4
65 °FClear.5 mph60%29.99 "Hg10 mi
Weather by CustomWeather, © 2016

See weather overviewHow to use our weather pages